Tracking 25686 objects as of 25-May-2022
HD Live streaming from Space Station
objects crossing your sky now

SL-8 DEB

Track SL-8 DEB now!
10-day predictions


NORAD ID: 25027
Int'l Code: 1992-053D
Perigee: 767.0 km
Apogee: 771.9 km
Inclination: 74.0 °
Period: 100.1 minutes
Semi major axis: 7140 km
RCS: 0.0055 m2 (small)
Launch date: August 12, 1992
Source: Commonwealth of Independent States (former USSR) (CIS)
Launch site: PLESETSK MISSILE AND SPACE COMPLEX (PKMTR)

Note: This is SATELLITE DEBRIS
aabbcc
Your satellite tracking list
Your tracking list is empty




NASA's NSSDC Master Catalog

Two Line Element Set (TLE):
1 25027U 92053D   22144.79460595  .00001039  00000-0  34640-3 0  9996
2 25027  74.0320 340.2662 0003446 108.0426 264.8995 14.38842652315325
Source of the keplerian elements: AFSPC